Time,TemperatureF,DewpointF,PressureIn,WindDirection,WindDirectionDegrees,WindSpeedMPH,WindSpeedGustMPH,Humidity,HourlyPrecipIn,Conditions,Clouds,dailyrainin,SoftwareType,DateUTC
2013-02-23 10:47:00,34.9,25.0,29.94,WNW,294,2.0,9.0,67,0.00,,,0.00,meteohub,2013-02-23 15:47:00,
2013-02-23 10:52:00,35.1,24.1,29.94,SW,224,5.0,9.0,64,0.00,,,0.00,meteohub,2013-02-23 15:52:00,
2013-02-23 10:57:00,35.2,25.0,29.94,West,269,0.0,9.0,66,0.00,,,0.00,meteohub,2013-02-23 15:57:00,
2013-02-23 11:02:00,35.8,25.2,29.94,West,274,0.0,7.0,65,0.00,,,0.00,meteohub,2013-02-23 16:02:00,
2013-02-23 11:07:00,36.1,26.2,29.94,NNW,344,4.0,6.0,67,0.00,,,0.00,meteohub,2013-02-23 16:07:00,
2013-02-23 11:12:00,36.3,26.1,29.94,NNW,333,3.0,7.0,66,0.00,,,0.00,meteohub,2013-02-23 16:12:00,
2013-02-23 11:17:00,36.7,26.4,29.94,NW,323,3.0,7.0,66,0.00,,,0.00,meteohub,2013-02-23 16:17:00,
2013-02-23 11:22:00,36.9,26.2,29.94,WSW,238,2.0,6.0,65,0.00,,,0.00,meteohub,2013-02-23 16:22:00,
2013-02-23 11:27:00,37.2,25.7,29.94,SSE,165,2.0,6.0,63,0.00,,,0.00,meteohub,2013-02-23 16:27:00,
2013-02-23 11:32:00,36.9,25.0,29.93,WSW,238,4.0,7.0,62,0.00,,,0.00,meteohub,2013-02-23 16:32:00,
2013-02-23 11:37:00,37.2,26.2,29.93,West,267,3.0,7.0,64,0.00,,,0.00,meteohub,2013-02-23 16:37:00,
2013-02-23 11:42:00,37.6,25.7,29.93,SSW,210,4.0,7.0,62,0.00,,,0.00,meteohub,2013-02-23 16:42:00,
2013-02-23 11:47:00,37.2,25.0,29.92,SSW,203,4.0,8.0,61,0.00,,,0.00,meteohub,2013-02-23 16:47:00,
2013-02-23 11:52:00,36.9,26.6,29.93,WSW,258,7.0,11.0,66,0.00,,,0.00,meteohub,2013-02-23 16:52:00,
2013-02-23 11:57:00,37.6,26.6,29.93,North,11,2.0,11.0,64,0.00,,,0.00,meteohub,2013-02-23 16:57:00,
2013-02-23 12:02:00,37.9,27.7,29.93,NE,53,2.0,11.0,66,0.00,,,0.00,meteohub,2013-02-23 17:02:00,
2013-02-23 12:07:00,38.5,26.6,29.93,NNW,335,4.0,7.0,62,0.00,,,0.00,meteohub,2013-02-23 17:07:00,
2013-02-23 12:12:00,38.5,27.0,29.93,SW,233,6.0,6.0,63,0.00,,,0.00,meteohub,2013-02-23 17:12:00,
2013-02-23 12:17:00,38.8,27.7,29.93,NNW,333,5.0,6.0,64,0.00,,,0.00,meteohub,2013-02-23 17:17:00,
2013-02-23 12:22:00,38.8,27.3,29.92,SSW,208,4.0,6.0,63,0.00,,,0.00,meteohub,2013-02-23 17:22:00,
2013-02-23 12:27:00,39.0,28.2,29.93,NNW,329,6.0,7.0,65,0.00,,,0.00,meteohub,2013-02-23 17:27:00,
2013-02-23 12:32:00,39.6,26.8,29.92,West,259,4.0,10.0,60,0.00,,,0.00,meteohub,2013-02-23 17:32:00,
2013-02-23 12:37:00,39.0,25.9,29.93,NW,305,3.0,10.0,59,0.00,,,0.00,meteohub,2013-02-23 17:37:00,
2013-02-23 12:42:00,39.7,28.2,29.92,NNW,340,3.0,10.0,63,0.00,,,0.00,meteohub,2013-02-23 17:42:00,
2013-02-23 12:47:00,39.7,27.3,29.91,NNW,335,10.0,10.0,61,0.00,,,0.00,meteohub,2013-02-23 17:47:00,
2013-02-23 12:52:00,39.6,26.8,29.91,WSW,239,6.0,12.0,60,0.00,,,0.00,meteohub,2013-02-23 17:52:00,
2013-02-23 12:57:00,39.4,27.1,29.91,North,357,2.0,12.0,61,0.00,,,0.00,meteohub,2013-02-23 17:57:00,
2013-02-23 13:02:00,39.6,26.8,29.91,SW,231,4.0,12.0,60,0.00,,,0.00,meteohub,2013-02-23 18:02:00,
2013-02-23 13:07:00,39.9,27.5,29.91,WNW,302,5.0,10.0,61,0.00,,,0.00,meteohub,2013-02-23 18:07:00,
2013-02-23 13:12:00,40.3,27.1,29.91,West,265,1.0,10.0,59,0.00,,,0.00,meteohub,2013-02-23 18:12:00,
2013-02-23 13:17:00,40.5,27.3,29.90,WSW,242,3.0,10.0,59,0.00,,,0.00,meteohub,2013-02-23 18:17:00,
2013-02-23 13:22:00,40.5,27.7,29.90,South,173,2.0,10.0,60,0.00,,,0.00,meteohub,2013-02-23 18:22:00,
2013-02-23 13:27:00,41.0,27.9,29.90,WSW,258,4.0,7.0,59,0.00,,,0.00,meteohub,2013-02-23 18:27:00,
2013-02-23 13:32:00,41.2,27.5,29.89,WNW,295,1.0,8.0,58,0.00,,,0.00,meteohub,2013-02-23 18:32:00,
2013-02-23 13:37:00,41.0,26.4,29.89,SSW,212,2.0,8.0,56,0.00,,,0.00,meteohub,2013-02-23 18:37:00,
2013-02-23 13:42:00,40.8,26.8,29.88,SW,214,2.0,8.0,57,0.00,,,0.00,meteohub,2013-02-23 18:42:00,
2013-02-23 13:47:00,41.4,28.0,29.89,NNW,338,2.0,7.0,59,0.00,,,0.00,meteohub,2013-02-23 18:47:00,
2013-02-23 13:52:00,40.8,26.4,29.88,North,0,7.0,10.0,56,0.00,,,0.00,meteohub,2013-02-23 18:52:00,
2013-02-23 13:57:00,40.6,27.0,29.87,NNW,337,5.0,10.0,58,0.00,,,0.00,meteohub,2013-02-23 18:57:00,
2013-02-23 14:02:00,40.5,25.5,29.87,NNE,13,7.0,10.0,55,0.00,,,0.00,meteohub,2013-02-23 19:02:00,
2013-02-23 14:07:00,40.3,25.9,29.87,North,3,7.0,11.0,56,0.00,,,0.00,meteohub,2013-02-23 19:07:00,
2013-02-23 14:12:00,40.3,25.9,29.87,North,356,3.0,11.0,56,0.00,,,0.00,meteohub,2013-02-23 19:12:00,
2013-02-23 14:17:00,41.2,27.1,29.87,West,278,4.0,9.0,57,0.00,,,0.00,meteohub,2013-02-23 19:17:00,
2013-02-23 14:22:00,41.7,28.0,29.87,NNW,344,3.0,9.0,58,0.00,,,0.00,meteohub,2013-02-23 19:22:00,
2013-02-23 14:27:00,41.5,25.2,29.87,NW,326,5.0,9.0,52,0.00,,,0.00,meteohub,2013-02-23 19:27:00,
2013-02-23 14:37:00,41.7,25.9,29.87,NNW,347,5.0,9.0,53,0.00,,,0.00,meteohub,2013-02-23 19:37:00,
2013-02-23 14:42:00,41.2,26.2,29.87,NNE,14,10.0,10.0,55,0.00,,,0.00,meteohub,2013-02-23 19:42:00,
2013-02-23 14:47:00,41.5,27.5,29.87,WNW,295,3.0,10.0,57,0.00,,,0.00,meteohub,2013-02-23 19:47:00,
2013-02-23 14:52:00,41.7,26.2,29.87,North,4,6.0,10.0,54,0.00,,,0.00,meteohub,2013-02-23 19:52:00,
2013-02-23 14:57:00,42.1,27.9,29.87,WNW,298,5.0,11.0,57,0.00,,,0.00,meteohub,2013-02-23 19:57:00,
2013-02-23 15:02:00,42.4,27.9,29.87,WNW,293,5.0,11.0,56,0.00,,,0.00,meteohub,2013-02-23 20:02:00,
2013-02-23 15:07:00,42.6,25.3,29.87,NW,312,3.0,11.0,50,0.00,,,0.00,meteohub,2013-02-23 20:07:00,
2013-02-23 15:12:00,42.6,27.1,29.87,NW,323,7.0,7.0,54,0.00,,,0.00,meteohub,2013-02-23 20:12:00,
2013-02-23 15:17:00,42.8,26.8,29.87,West,270,4.0,7.0,53,0.00,,,0.00,meteohub,2013-02-23 20:17:00,
2013-02-23 15:22:00,43.0,26.1,29.87,WSW,253,4.0,8.0,51,0.00,,,0.00,meteohub,2013-02-23 20:22:00,
2013-02-23 15:32:00,43.3,25.9,29.88,WSW,255,3.0,9.0,50,0.00,,,0.00,meteohub,2013-02-23 20:32:00,
2013-02-23 15:37:00,43.3,26.4,29.88,WNW,292,5.0,9.0,51,0.00,,,0.00,meteohub,2013-02-23 20:37:00,
2013-02-23 15:42:00,43.2,26.8,29.88,NNW,335,8.0,9.0,52,0.00,,,0.00,meteohub,2013-02-23 20:42:00,
2013-02-23 15:47:00,43.0,26.1,29.87,West,262,3.0,8.0,51,0.00,,,0.00,meteohub,2013-02-23 20:47:00,
2013-02-23 15:52:00,43.0,27.5,29.87,NNW,342,5.0,8.0,54,0.00,,,0.00,meteohub,2013-02-23 20:52:00,
2013-02-23 15:57:00,42.8,26.8,29.87,NNE,25,4.0,8.0,53,0.00,,,0.00,meteohub,2013-02-23 20:57:00,
2013-02-23 16:02:00,43.0,27.5,29.87,West,280,2.0,6.0,54,0.00,,,0.00,meteohub,2013-02-23 21:02:00,
2013-02-23 16:07:00,43.5,27.1,29.87,SW,222,1.0,6.0,52,0.00,,,0.00,meteohub,2013-02-23 21:07:00,
2013-02-23 16:12:00,43.3,27.3,29.87,NNW,340,5.0,6.0,53,0.00,,,0.00,meteohub,2013-02-23 21:12:00,
2013-02-23 16:22:00,42.4,27.0,29.87,NNW,348,4.0,10.0,54,0.00,,,0.00,meteohub,2013-02-23 21:22:00,
2013-02-23 16:27:00,42.4,26.1,29.87,WNW,285,2.0,10.0,52,0.00,,,0.00,meteohub,2013-02-23 21:27:00,
2013-02-23 16:32:00,43.2,26.8,29.86,West,264,4.0,10.0,52,0.00,,,0.00,meteohub,2013-02-23 21:32:00,
2013-02-23 16:37:00,43.3,27.9,29.86,WSW,251,2.0,9.0,54,0.00,,,0.00,meteohub,2013-02-23 21:37:00,
2013-02-23 16:42:00,43.3,26.4,29.86,NW,321,2.0,8.0,51,0.00,,,0.00,meteohub,2013-02-23 21:42:00,
2013-02-23 16:47:00,43.2,26.8,29.86,NW,319,1.0,5.0,52,0.00,,,0.00,meteohub,2013-02-23 21:47:00,
2013-02-23 16:52:00,43.3,26.4,29.86,WSW,252,2.0,5.0,51,0.00,,,0.00,meteohub,2013-02-23 21:52:00,
2013-02-23 16:57:00,43.5,27.1,29.86,NW,325,2.0,5.0,52,0.00,,,0.00,meteohub,2013-02-23 21:57:00,
2013-02-23 17:02:00,43.5,27.5,29.85,SW,214,2.0,5.0,53,0.00,,,0.00,meteohub,2013-02-23 22:02:00,
2013-02-23 17:07:00,43.2,26.8,29.86,North,356,5.0,5.0,52,0.00,,,0.00,meteohub,2013-02-23 22:07:00,
2013-02-23 17:12:00,42.6,26.6,29.86,NW,315,4.0,6.0,53,0.00,,,0.00,meteohub,2013-02-23 22:12:00,
2013-02-23 17:17:00,42.4,27.0,29.86,NW,314,3.0,6.0,54,0.00,,,0.00,meteohub,2013-02-23 22:17:00,
2013-02-23 17:22:00,42.3,27.3,29.86,NNW,330,2.0,6.0,55,0.00,,,0.00,meteohub,2013-02-23 22:22:00,
2013-02-23 17:27:00,42.4,27.0,29.86,West,269,2.0,6.0,54,0.00,,,0.00,meteohub,2013-02-23 22:27:00,
2013-02-23 17:32:00,42.4,27.0,29.86,WNW,290,2.0,5.0,54,0.00,,,0.00,meteohub,2013-02-23 22:32:00,
2013-02-23 17:37:00,42.4,27.5,29.86,NW,312,4.0,5.0,55,0.00,,,0.00,meteohub,2013-02-23 22:37:00,
2013-02-23 17:42:00,42.3,27.7,29.86,NNW,337,3.0,5.0,56,0.00,,,0.00,meteohub,2013-02-23 22:42:00,
2013-02-23 17:52:00,41.7,27.1,29.86,NNW,340,3.0,5.0,56,0.00,,,0.00,meteohub,2013-02-23 22:52:00,
2013-02-23 17:57:00,41.2,27.1,29.86,NW,312,2.0,5.0,57,0.00,,,0.00,meteohub,2013-02-23 22:57:00,
2013-02-23 18:02:00,40.6,27.5,29.86,WSW,242,1.0,5.0,59,0.00,,,0.00,meteohub,2013-02-23 23:02:00,
2013-02-23 18:07:00,39.9,28.0,29.86,SW,226,0.0,4.0,62,0.00,,,0.00,meteohub,2013-02-23 23:07:00,
2013-02-23 18:12:00,38.8,28.0,29.87,SE,143,1.0,4.0,65,0.00,,,0.00,meteohub,2013-02-23 23:12:00,
2013-02-23 18:17:00,37.9,28.4,29.86,SSE,157,1.0,2.0,68,0.00,,,0.00,meteohub,2013-02-23 23:17:00,
2013-02-23 18:22:00,37.0,28.2,29.87,SSE,161,1.0,2.0,70,0.00,,,0.00,meteohub,2013-02-23 23:22:00,
2013-02-23 18:27:00,36.3,28.2,29.86,SSE,165,1.0,2.0,72,0.00,,,0.00,meteohub,2013-02-23 23:27:00,
2013-02-23 18:32:00,35.6,28.2,29.86,SSE,150,1.0,2.0,74,0.00,,,0.00,meteohub,2013-02-23 23:32:00,
2013-02-23 18:37:00,35.1,27.9,29.87,South,172,2.0,2.0,75,0.00,,,0.00,meteohub,2013-02-23 23:37:00,
2013-02-23 18:42:00,34.9,27.7,29.87,SSE,151,2.0,3.0,75,0.00,,,0.00,meteohub,2013-02-23 23:42:00,
2013-02-23 18:47:00,34.7,27.7,29.87,SE,146,2.0,3.0,75,0.00,,,0.00,meteohub,2013-02-23 23:47:00,
2013-02-23 18:52:00,34.5,27.7,29.87,SSE,150,2.0,3.0,76,0.00,,,0.00,meteohub,2013-02-23 23:52:00,
2013-02-23 18:57:00,34.3,27.9,29.87,SSE,157,3.0,3.0,77,0.00,,,0.00,meteohub,2013-02-23 23:57:00,
2013-02-23 19:02:00,34.5,27.7,29.87,SSE,158,2.0,3.0,76,0.00,,,0.00,meteohub,2013-02-24 00:02:00,
2013-02-23 19:07:00,34.2,28.0,29.87,SSE,165,2.0,3.0,78,0.00,,,0.00,meteohub,2013-02-24 00:07:00,
2013-02-23 19:12:00,34.0,27.9,29.87,SSE,155,0.0,3.0,78,0.00,,,0.00,meteohub,2013-02-24 00:12:00,
2013-02-23 19:17:00,33.8,28.0,29.87,SSE,154,0.0,3.0,79,0.00,,,0.00,meteohub,2013-02-24 00:17:00,
2013-02-23 19:22:00,33.4,27.7,29.87,SSE,155,0.0,3.0,79,0.00,,,0.00,meteohub,2013-02-24 00:22:00,
2013-02-23 19:27:00,33.3,27.7,29.87,SE,142,0.0,0.0,80,0.00,,,0.00,meteohub,2013-02-24 00:27:00,
2013-02-23 19:32:00,32.9,27.5,29.88,SE,143,0.0,0.0,80,0.00,,,0.00,meteohub,2013-02-24 00:32:00,
2013-02-23 19:37:00,32.4,27.1,29.88,SE,142,0.0,1.0,81,0.00,,,0.00,meteohub,2013-02-24 00:37:00,
2013-02-23 19:42:00,32.0,27.1,29.88,SSE,152,0.0,1.0,82,0.00,,,0.00,meteohub,2013-02-24 00:42:00,
2013-02-23 19:47:00,31.8,27.3,29.88,SW,221,2.0,2.0,83,0.00,,,0.00,meteohub,2013-02-24 00:47:00,
2013-02-23 19:52:00,31.6,27.1,29.88,SW,223,0.0,2.0,83,0.00,,,0.00,meteohub,2013-02-24 00:52:00,
2013-02-23 19:57:00,31.6,27.1,29.88,SSW,211,0.0,2.0,83,0.00,,,0.00,meteohub,2013-02-24 00:57:00,
2013-02-23 20:02:00,31.5,26.6,29.88,SSW,211,0.0,2.0,82,0.00,,,0.00,meteohub,2013-02-24 01:02:00,
2013-02-23 20:07:00,31.3,26.8,29.89,SW,216,0.0,2.0,83,0.00,,,0.00,meteohub,2013-02-24 01:07:00,
2013-02-23 20:12:00,31.1,26.6,29.89,SW,215,0.0,1.0,83,0.00,,,0.00,meteohub,2013-02-24 01:12:00,
2013-02-23 20:17:00,30.7,26.2,29.89,SW,215,0.0,1.0,83,0.00,,,0.00,meteohub,2013-02-24 01:17:00,
2013-02-23 20:22:00,30.4,26.1,29.89,SW,215,0.0,0.0,84,0.00,,,0.00,meteohub,2013-02-24 01:22:00,
2013-02-23 20:27:00,30.0,26.1,29.89,SW,215,0.0,0.0,85,0.00,,,0.00,meteohub,2013-02-24 01:27:00,
2013-02-23 20:32:00,29.7,25.7,29.89,SW,214,0.0,0.0,85,0.00,,,0.00,meteohub,2013-02-24 01:32:00,
2013-02-23 20:37:00,29.3,25.7,29.89,SW,215,0.0,0.0,86,0.00,,,0.00,meteohub,2013-02-24 01:37:00,
2013-02-23 20:42:00,28.9,25.3,29.89,SW,215,0.0,0.0,86,0.00,,,0.00,meteohub,2013-02-24 01:42:00,
2013-02-23 20:47:00,28.8,25.3,29.89,SW,215,0.0,0.0,87,0.00,,,0.00,meteohub,2013-02-24 01:47:00,
2013-02-23 20:52:00,28.6,25.2,29.89,SW,215,0.0,0.0,87,0.00,,,0.00,meteohub,2013-02-24 01:52:00,
2013-02-23 20:57:00,28.6,25.5,29.89,SW,215,0.0,0.0,88,0.00,,,0.00,meteohub,2013-02-24 01:57:00,
2013-02-23 21:02:00,28.8,25.9,29.89,WSW,245,0.0,1.0,89,0.00,,,0.00,meteohub,2013-02-24 02:02:00,
2013-02-23 21:07:00,28.9,25.9,29.90,WSW,245,0.0,1.0,88,0.00,,,0.00,meteohub,2013-02-24 02:07:00,
2013-02-23 21:12:00,28.9,25.9,29.90,WSW,245,0.0,1.0,88,0.00,,,0.00,meteohub,2013-02-24 02:12:00,
2013-02-23 21:17:00,28.9,25.9,29.90,SW,221,0.0,1.0,88,0.00,,,0.00,meteohub,2013-02-24 02:17:00,
2013-02-23 21:22:00,28.9,25.9,29.90,SSW,203,1.0,1.0,88,0.00,,,0.00,meteohub,2013-02-24 02:22:00,
2013-02-23 21:27:00,28.9,25.9,29.90,South,190,0.0,2.0,88,0.00,,,0.00,meteohub,2013-02-24 02:27:00,
2013-02-23 21:32:00,28.9,25.9,29.90,SSW,207,0.0,2.0,88,0.00,,,0.00,meteohub,2013-02-24 02:32:00,
2013-02-23 21:37:00,28.9,25.9,29.90,SW,226,0.0,1.0,88,0.00,,,0.00,meteohub,2013-02-24 02:37:00,
2013-02-23 21:42:00,28.9,25.9,29.90,SW,226,0.0,1.0,88,0.00,,,0.00,meteohub,2013-02-24 02:42:00,
2013-02-23 21:47:00,28.9,25.9,29.90,West,268,0.0,1.0,88,0.00,,,0.00,meteohub,2013-02-24 02:47:00,
2013-02-23 21:52:00,28.9,25.9,29.90,West,268,0.0,1.0,88,0.00,,,0.00,meteohub,2013-02-24 02:52:00,
2013-02-23 22:02:00,28.8,25.7,29.90,SSW,200,1.0,1.0,88,0.00,,,0.00,meteohub,2013-02-24 03:02:00,
2013-02-23 22:07:00,28.9,26.1,29.90,South,179,0.0,1.0,89,0.00,,,0.00,meteohub,2013-02-24 03:07:00,
2013-02-23 22:12:00,28.8,25.7,29.91,SW,214,0.0,1.0,88,0.00,,,0.00,meteohub,2013-02-24 03:12:00,
2013-02-23 22:17:00,28.6,25.5,29.91,SW,232,1.0,1.0,88,0.00,,,0.00,meteohub,2013-02-24 03:17:00,
2013-02-23 22:22:00,28.6,25.5,29.91,WSW,239,0.0,1.0,88,0.00,,,0.00,meteohub,2013-02-24 03:22:00,
2013-02-23 22:27:00,28.8,25.7,29.91,WSW,253,0.0,1.0,88,0.00,,,0.00,meteohub,2013-02-24 03:27:00,
2013-02-23 22:32:00,28.8,25.7,29.91,SW,219,1.0,1.0,88,0.00,,,0.00,meteohub,2013-02-24 03:32:00,
2013-02-23 22:37:00,28.8,25.7,29.91,SW,221,1.0,2.0,88,0.00,,,0.00,meteohub,2013-02-24 03:37:00,
2013-02-23 22:42:00,28.8,25.7,29.92,SSW,213,1.0,2.0,88,0.00,,,0.00,meteohub,2013-02-24 03:42:00,
2013-02-23 22:52:00,28.8,25.9,29.92,South,190,1.0,2.0,89,0.00,,,0.00,meteohub,2013-02-24 03:52:00,
2013-02-23 22:57:00,28.6,25.7,29.92,SW,224,0.0,2.0,89,0.00,,,0.00,meteohub,2013-02-24 03:57:00,
2013-02-23 23:02:00,28.8,25.9,29.92,SW,231,0.0,2.0,89,0.00,,,0.00,meteohub,2013-02-24 04:02:00,
2013-02-23 23:07:00,28.8,25.9,29.92,SW,228,0.0,1.0,89,0.00,,,0.00,meteohub,2013-02-24 04:07:00,
2013-02-23 23:12:00,28.9,26.1,29.92,SSE,162,0.0,1.0,89,0.00,,,0.00,meteohub,2013-02-24 04:12:00,
2013-02-23 23:17:00,29.1,26.2,29.92,SSE,162,0.0,1.0,89,0.00,,,0.00,meteohub,2013-02-24 04:17:00,
2013-02-23 23:22:00,29.1,26.2,29.91,SSE,162,0.0,0.0,89,0.00,,,0.00,meteohub,2013-02-24 04:22:00,
2013-02-23 23:27:00,28.9,25.9,29.92,SW,235,0.0,0.0,88,0.00,,,0.00,meteohub,2013-02-24 04:27:00,
2013-02-23 23:32:00,28.8,25.7,29.92,SSW,200,0.0,0.0,88,0.00,,,0.00,meteohub,2013-02-24 04:32:00,
2013-02-23 23:37:00,28.6,25.5,29.91,SW,221,0.0,1.0,88,0.00,,,0.00,meteohub,2013-02-24 04:37:00,
2013-02-23 23:42:00,28.2,25.2,29.91,SSW,202,0.0,1.0,88,0.00,,,0.00,meteohub,2013-02-24 04:42:00,
2013-02-23 23:47:00,28.2,25.2,29.91,SSW,203,0.0,1.0,88,0.00,,,0.00,meteohub,2013-02-24 04:47:00,
2013-02-23 23:52:00,28.0,25.0,29.91,SW,226,0.0,1.0,88,0.00,,,0.00,meteohub,2013-02-24 04:52:00,
2013-02-23 23:57:00,27.9,24.8,29.91,SW,226,0.0,1.0,88,0.00,,,0.00,meteohub,2013-02-24 04:57:00,